STARLINK-35106 (65739 NORAD) Tracking and Keplerian Element Data

This shows tracking and keplerian element data for the satellite.

Feedback or suggestion? Click here.




ElementValue
Catalog65739
NameSTARLINK-35106
Epoch Orbit1433
Epoch Day354.14442996
Epoch Year2025
RAAN342.4571
Inclination53.16
Eccentricity0.0002911
Argument of Perigee87.3269
Mean Anonmoly272.8065
Mean Motion15.30208114
Decay Rate0.00019149
L11 65739U 25216F 25354.14442996 .00019149 00000+0 65678-3 0 9992
L22 65739 53.1600 342.4571 0002911 87.3269 272.8065 15.30208114 14337



Live tracking and technical data element details for STARLINK-35106 (NORAD 65739). STARLINK-35106 can be tracked NOW for your location showing map with azimuth and elevation plus other details from your city location.







IsCatalogInMostPopularTable: catalog: 65739, numindb: 3
Update: records affected: 1



GetName: 65739 STARLINK-35106

Hit Count: updated at: Sun, 08 Feb 2026 17:12:43 GMT